Weather History for Marysville, OH

Change the Weather History Date:

Monday, January 21, 2013

  Actual Average (KDLZ) Record (KDLZ)
Temperature  
Mean Temperature 16 °F -  
Max Temperature 22 °F 33 °F 60 °F (1974)
Min Temperature 8 °F 16 °F -22 °F (1984)
Degree Days  
Heating Degree Days 50    
Moisture  
Dew Point 8 °F    
Average Humidity 67    
Maximum Humidity 80    
Minimum Humidity 45    
Precipitation  
Precipitation 0.00 in - - ()
Sea Level Pressure  
Sea Level Pressure 30.07 in    
Wind  
Wind Speed 10 mph (WNW)    
Max Wind Speed 28 mph    
Max Gust Speed 39 mph    
Visibility 9 miles    
Events      
Averages and records for this station are not official NWS values.
T = Trace of Precipitation, MM = Missing Value Source: NWS Daily Summary

Daily Weather History Graph

Daily Weather History Graph

Search for Another Location

Airport:

Trip Planner

Search our weather history database for the weather conditions in past years. The results will help you decide how hot, cold, wet, or windy it might be!

Date:

Astronomy

Jan. 21, 2013 Rise Set
Actual Time 7:50 AM EST 5:39 PM EST
Civil Twilight 7:21 AM EST 6:08 PM EST
Nautical Twilight 6:48 AM EST 6:41 PM EST
Astronomical Twilight 6:15 AM EST 7:14 PM EST
Moon 1:18 PM EST (1/21) 3:18 AM EST (1/21)
Length of Visible Light 10h 47m
Length of Day
9h 48m
Waxing Gibbous, 75% of the Moon is Illuminated
Jan 21
Waxing Gibbous
Jan 26
Full
Feb 3
Last Quarter
Feb 10
New
Feb 17
First Quarter

Hourly Weather History & Observations

Time (EST) Temp. Windchill Dew Point Humidity Pressure Visibility Wind Dir Wind Speed Gust Speed Precip Events Conditions
12:14 AM 23.0 °F 15.8 °F 12.0 °F 63% 30.13 in 10.0 mi NW 5.8 mph - N/A   Overcast
12:34 AM 22.8 °F 13.6 °F 12.0 °F 63% 30.12 in 10.0 mi WNW 8.1 mph - N/A   Overcast
12:54 AM 22.8 °F 15.5 °F 13.6 °F 68% 30.11 in 10.0 mi North 5.8 mph - N/A   Overcast
1:14 AM 21.9 °F 14.5 °F 15.6 °F 77% 30.12 in 10.0 mi North 5.8 mph - N/A   Overcast
1:34 AM 21.4 °F 13.8 °F 15.4 °F 78% 30.11 in 10.0 mi North 5.8 mph - N/A   Overcast
1:54 AM 21.0 °F 13.4 °F 14.5 °F 76% 30.11 in 10.0 mi North 5.8 mph - N/A   Overcast
2:14 AM 20.8 °F 14.4 °F 14.2 °F 75% 30.10 in 10.0 mi North 4.6 mph - N/A   Overcast
2:34 AM 20.7 °F 15.8 °F 14.0 °F 75% 30.10 in 10.0 mi North 3.5 mph - N/A   Overcast
2:54 AM 20.7 °F 15.8 °F 14.0 °F 75% 30.10 in 10.0 mi North 3.5 mph - N/A   Overcast
3:14 AM 20.7 °F 15.8 °F 13.8 °F 75% 30.09 in 10.0 mi North 3.5 mph - N/A   Overcast
3:34 AM 20.7 °F 15.8 °F 13.5 °F 74% 30.08 in 10.0 mi North 3.5 mph - N/A   Overcast
3:54 AM 20.3 °F - 13.5 °F 75% 30.08 in 10.0 mi Calm Calm - N/A   Overcast
4:14 AM 20.3 °F - 13.1 °F 74% 30.08 in 10.0 mi Calm Calm - N/A   Overcast
4:34 AM 20.3 °F - 13.1 °F 74% 30.07 in 10.0 mi Calm Calm - N/A   Overcast
4:54 AM 20.3 °F 15.4 °F 13.1 °F 74% 30.07 in 10.0 mi North 3.5 mph - N/A   Overcast
5:13 AM 20.3 °F - 13.1 °F 74% 30.06 in 10.0 mi Calm Calm - N/A   Overcast
5:34 AM 20.3 °F - 13.1 °F 74% 30.06 in 10.0 mi Calm Calm - N/A   Overcast
5:54 AM 20.3 °F - 13.3 °F 74% 30.06 in 10.0 mi Calm Calm - N/A   Overcast
6:13 AM 20.3 °F - 13.3 °F 74% 30.06 in 10.0 mi Calm Calm - N/A   Overcast
6:34 AM 20.3 °F - 13.5 °F 75% 30.05 in 10.0 mi Calm Calm - N/A   Overcast
6:54 AM 20.3 °F - 14.0 °F 77% 30.04 in 10.0 mi Calm Calm - N/A   Overcast
7:13 AM 20.3 °F 15.4 °F 14.5 °F 78% 30.04 in 10.0 mi WSW 3.5 mph - N/A   Overcast
7:34 AM 21.2 °F 11.7 °F 13.8 °F 73% 30.04 in 10.0 mi West 8.1 mph - N/A   Overcast
7:54 AM 21.2 °F 9.5 °F 12.6 °F 69% 30.04 in 10.0 mi West 11.5 mph - N/A   Overcast
8:13 AM 21.2 °F 9.5 °F 12.0 °F 68% 30.04 in 10.0 mi West 11.5 mph - N/A   Overcast
8:34 AM 21.0 °F 8.1 °F 12.0 °F 68% 30.04 in 10.0 mi WNW 13.8 mph - N/A   Overcast
8:54 AM 21.2 °F 8.3 °F 11.7 °F 67% 30.04 in 10.0 mi West 13.8 mph 23.0 mph N/A   Overcast
9:14 AM 20.7 °F 6.6 °F 12.4 °F 70% 30.04 in 5.0 mi West 16.1 mph - N/A   Overcast
9:34 AM 19.9 °F 6.7 °F 13.8 °F 77% 30.04 in 2.0 mi WNW 13.8 mph - N/A   Overcast
9:54 AM 20.1 °F 6.9 °F 13.1 °F 74% 30.04 in 5.0 mi WNW 13.8 mph - N/A   Overcast
10:14 AM 19.9 °F 7.3 °F 13.8 °F 77% 30.04 in 5.0 mi West 12.7 mph - N/A   Overcast
10:54 AM 21.2 °F 7.3 °F 12.2 °F 68% 30.04 in 10.0 mi West 16.1 mph 21.9 mph N/A   Overcast
11:14 AM 20.7 °F 5.7 °F 11.7 °F 68% 30.04 in 7.0 mi NW 18.4 mph 23.0 mph N/A   Overcast
11:34 AM 19.9 °F 3.9 °F 12.6 °F 73% 30.04 in 2.0 mi West 20.7 mph 25.3 mph N/A   Overcast
11:54 AM 19.2 °F 5.3 °F 13.8 °F 80% 30.03 in 1.0 mi WNW 15.0 mph 21.9 mph N/A   Overcast
12:14 PM 21.2 °F 6.0 °F 12.2 °F 68% 30.02 in 7.0 mi West 19.6 mph 25.3 mph N/A   Overcast
12:34 PM 20.5 °F 5.0 °F 9.9 °F 64% 30.02 in 7.0 mi WNW 19.6 mph 26.5 mph N/A   Overcast
12:54 PM 21.0 °F 5.0 °F 11.1 °F 66% 30.02 in 4.0 mi WNW 21.9 mph 31.1 mph N/A   Overcast
1:14 PM 20.1 °F 2.1 °F 6.8 °F 56% 30.02 in 10.0 mi West 27.6 mph 35.7 mph N/A   Overcast
1:34 PM 20.1 °F 2.7 °F 6.1 °F 55% 30.01 in 10.0 mi WNW 25.3 mph 31.1 mph N/A   Overcast
1:54 PM 21.7 °F 4.9 °F 5.4 °F 49% 30.01 in 10.0 mi WNW 25.3 mph 39.1 mph N/A   Mostly Cloudy
2:14 PM 20.3 °F 4.0 °F 2.8 °F 47% 30.02 in 10.0 mi WNW 21.9 mph 36.8 mph N/A   Mostly Cloudy
2:34 PM 20.3 °F 4.4 °F 1.8 °F 45% 30.02 in 10.0 mi NW 20.7 mph 26.5 mph N/A   Overcast
2:54 PM 19.9 °F 5.2 °F 5.7 °F 54% 30.03 in 10.0 mi WNW 17.3 mph 25.3 mph N/A   Overcast
3:14 PM 18.1 °F 3.4 °F 4.1 °F 54% 30.04 in 10.0 mi WNW 16.1 mph 27.6 mph N/A   Overcast
3:34 PM 17.6 °F 0.9 °F 0.5 °F 47% 30.04 in 10.0 mi NW 20.7 mph 27.6 mph N/A   Overcast
3:54 PM 17.2 °F 1.7 °F 1.2 °F 50% 30.05 in 10.0 mi WNW 17.3 mph 27.6 mph N/A   Overcast
4:14 PM 18.0 °F 1.7 °F 2.7 °F 51% 30.05 in 10.0 mi WNW 19.6 mph - N/A   Overcast
4:34 PM 17.6 °F 2.7 °F 7.2 °F 64% 30.05 in 5.0 mi WNW 16.1 mph 26.5 mph N/A   Overcast
4:54 PM 15.8 °F -1.5 °F 7.7 °F 70% 30.06 in 3.0 mi West 20.7 mph 31.1 mph N/A   Overcast
5:14 PM 15.3 °F -1.8 °F 6.8 °F 69% 30.07 in 4.0 mi West 19.6 mph 26.5 mph N/A   Overcast
5:34 PM 14.7 °F -3.8 °F 2.1 °F 57% 30.08 in 10.0 mi WNW 23.0 mph 28.8 mph N/A   Mostly Cloudy
5:54 PM 14.2 °F -2.3 °F 6.1 °F 70% 30.08 in 5.0 mi NW 17.3 mph 25.3 mph N/A   Mostly Cloudy
6:14 PM 13.1 °F -5.1 °F 6.1 °F 74% 30.10 in 2.5 mi WNW 20.7 mph 29.9 mph N/A   Overcast
6:34 PM 12.9 °F -3.4 °F 6.8 °F 77% 30.10 in 3.0 mi West 16.1 mph 26.5 mph N/A   Overcast
6:54 PM 12.2 °F -5.3 °F 4.5 °F 71% 30.11 in 4.0 mi WNW 18.4 mph 24.2 mph N/A   Overcast
7:14 PM 11.7 °F -6.0 °F 4.3 °F 72% 30.11 in 10.0 mi West 18.4 mph 21.9 mph N/A   Overcast
7:54 PM 10.8 °F -4.3 °F 2.3 °F 69% 30.12 in 10.0 mi WNW 12.7 mph 20.7 mph N/A   Mostly Cloudy
8:14 PM 10.9 °F -3.4 °F 0.7 °F 63% 30.12 in 10.0 mi WNW 11.5 mph - N/A   Overcast
8:34 PM 10.4 °F -4.8 °F 0.9 °F 65% 30.12 in 10.0 mi West 12.7 mph 18.4 mph N/A   Mostly Cloudy
8:53 PM 10.4 °F -7.2 °F -1.7 °F 58% 30.12 in 10.0 mi WNW 17.3 mph 27.6 mph N/A   Scattered Clouds
9:14 PM 10.2 °F -6.3 °F -2.0 °F 58% 30.12 in 10.0 mi WNW 15.0 mph 20.7 mph N/A   Clear
9:34 PM 10.0 °F -7.1 °F -2.2 °F 58% 30.13 in 10.0 mi WNW 16.1 mph 24.2 mph N/A   Scattered Clouds
9:53 PM 9.9 °F -6.7 °F -1.5 °F 60% 30.14 in 10.0 mi WNW 15.0 mph - N/A   Scattered Clouds
10:14 PM 10.2 °F -7.9 °F -0.8 °F 61% 30.14 in 10.0 mi NW 18.4 mph - N/A   Mostly Cloudy
10:34 PM 9.5 °F -8.3 °F -1.3 °F 62% 30.15 in 10.0 mi WNW 17.3 mph 24.2 mph N/A   Mostly Cloudy
10:54 PM 9.0 °F -6.6 °F -0.8 °F 65% 30.15 in 10.0 mi WNW 12.7 mph 19.6 mph N/A   Scattered Clouds
11:14 PM 8.8 °F -6.1 °F -1.1 °F 64% 30.16 in 10.0 mi WNW 11.5 mph - N/A   Scattered Clouds
11:34 PM 8.6 °F -8.3 °F -0.9 °F 65% 30.16 in 10.0 mi WNW 15.0 mph 19.6 mph N/A   Scattered Clouds
11:50 PM 8.6 °F -8.9 °F -1.3 °F 64% 30.15 in 10.0 mi WNW 16.1 mph 21.9 mph N/A   Scattered Clouds